This is the latest recevied weather packets stored in our database for station/object KC1OEK-13. If no packets are shown the sender has not sent any weather packets the latest 10 day(s).
| Time | Temp. | Humidity | Pressure | Rain* | Wind** | Luminosity | Snow |
|---|---|---|---|---|---|---|---|
| 1787444403 | 19.44° C | 95% | 1017.4 hPa | 0 mm | - | 0 W/m² | - |
| 1787444097 | 19.44° C | 95% | 1017.4 hPa | 0 mm | - | 0 W/m² | - |
| 1787443796 | 19.44° C | 94% | 1017.3 hPa | 0 mm | - | 0 W/m² | - |
| 1787443491 | 19.44° C | 94% | 1017.3 hPa | 0 mm | - | 0 W/m² | - |
| 1787443190 | 19.44° C | 94% | 1017.4 hPa | 0 mm | - | 0 W/m² | - |
| 1787442886 | 19.44° C | 94% | 1017.3 hPa | 0 mm | - | 0 W/m² | - |
| 1787442582 | 19.44° C | 94% | 1017.3 hPa | 0 mm | - | 0 W/m² | - |
| 1787442278 | 19.44° C | 94% | 1017.2 hPa | 0 mm | - | 1 W/m² | - |
| 1787441972 | 19.44° C | 94% | 1017.4 hPa | 0 mm | - | 1 W/m² | - |
| 1787441668 | 19.44° C | 94% | 1017.3 hPa | 0 mm | - | 1 W/m² | - |
| 1787441362 | 19.44° C | 94% | 1017.4 hPa | 0 mm | - | 3 W/m² | - |
| 1787441059 | 19.44° C | 94% | 1017.3 hPa | 0 mm | - | 4 W/m² | - |
| 1787440754 | 19.44° C | 94% | 1017.3 hPa | 0 mm | - | 4 W/m² | - |
| 1787440449 | 20° C | 94% | 1017.3 hPa | 0 mm | - | 4 W/m² | - |
| 1787440146 | 20° C | 94% | 1017.6 hPa | 0 mm | - | 6 W/m² | - |
| 1787439840 | 20° C | 93% | 1017.5 hPa | 0 mm | - | 7 W/m² | - |
| 1787439536 | 20° C | 93% | 1017.5 hPa | 0 mm | - | 9 W/m² | - |
| 1787439232 | 20° C | 93% | 1017.4 hPa | 0 mm | - | 13 W/m² | - |
| 1787438927 | 20° C | 93% | 1017.6 hPa | 0 mm | - | 15 W/m² | - |
| 1787438622 | 20° C | 92% | 1017.7 hPa | 0 mm | - | 17 W/m² | - |
| 1787438317 | 20° C | 92% | 1017.7 hPa | 0 mm | - | 19 W/m² | - |
| 1787438010 | 20° C | 92% | 1017.7 hPa | 0 mm | - | 18 W/m² | - |
| 1787437707 | 20.56° C | 92% | 1017.9 hPa | 0 mm | - | 18 W/m² | - |
| 1787437404 | 20° C | 92% | 1017.8 hPa | 0 mm | - | 17 W/m² | - |
| 1787437099 | 20° C | 91% | 1018.1 hPa | 0 mm | - | 22 W/m² | - |
* Rain latest hour (hover to see other rain measurements)
** Current wind speed in m/s (hover to see current wind gust speed)